Tracking 25612 objects as of 19-May-2022
HD Live streaming from Space Station
objects crossing your sky now

SL-14 DEB

Track SL-14 DEB now!
10-day predictions


NORAD ID: 26015
Int'l Code: 1991-068AA
Perigee: 1,369.2 km
Apogee: 1,472.9 km
Inclination: 82.5 °
Period: 114.1 minutes
Semi major axis: 7792 km
RCS: 0.084 m2 (small)
Launch date: September 28, 1991
Source: Commonwealth of Independent States (former USSR) (CIS)
Launch site: PLESETSK MISSILE AND SPACE COMPLEX (PKMTR)

Note: This is SATELLITE DEBRIS
aabbcc
Your satellite tracking list
Your tracking list is empty




NASA's NSSDC Master Catalog

Two Line Element Set (TLE):
1 26015U 91068AA  22139.34888175  .00000051  00000-0  23102-3 0  9996
2 26015  82.4781 159.7409 0066545 298.5633  72.9759 12.62196971409818
Source of the keplerian elements: AFSPC